Location: Harwich
(41.7160°N, 69.9939°W)
Time: 14:57:33
(UTC+02:00)

Oscar 19 - Visible Passes

Search period start: 17 September 2024 00:00
Search period end: 27 September 2024 00:00
Orbit: 772 x 787 km, 98.9° (Epoch: 16 September)

Date Brightness Start Highest point End Pass type
(mag) Time Alt. Az. Time Alt. Az. Time Alt. Az.
17 Sep 13.5 11:02:27 10° NE 11:06:01 19° E 11:09:34 10° SE visible
19 Sep 12.3 11:35:30 10° NNE 11:40:19 37° E 11:45:05 10° SSE visible
20 Sep 13.5 11:03:51 10° NE 11:07:28 19° E 11:11:03 10° SE visible
22 Sep 12.3 11:36:56 10° NNE 11:41:46 38° E 11:46:32 10° SSE visible
23 Sep 13.5 11:05:14 10° NE 11:08:54 19° E 11:12:32 10° SE visible
25 Sep 12.2 11:38:21 10° NNE 11:43:12 39° E 11:47:59 10° SSE visible
26 Sep 13.5 11:06:37 10° NE 11:10:20 20° E 11:14:01 10° SE visible
